Location: Casco Millpond
(44.5581°N, 87.6111°W)
Time: 09:22:23
(UTC+00:00)

Cosmos 1953 - Pass Details

Date: 16 January 2026
Orbit: 475 x 489 km, 82.5° (Epoch: 9 February)

Event Time Altitude Azimuth Distance (km) Brightness Sun altitude
Rises 23:26:07 0° 352° (N) 2,584 5.6 -8.6°
Reaches altitude 10° 23:28:14 10° 354° (N) 1,697 4.7 -9.0°
Maximum altitude 23:31:57 80° 82° (E) 506 2.0 -9.6°
Drops below altitude 10° 23:35:38 10° 169° (S) 1,679 4.9 -10.2°
Sets 23:37:43 0° 171° (S) 2,554 5.9 -10.6°
